THOR ABLESTAR R/B, 1508

Orbit data source: Space-Track

THOR ABLESTAR R/B, 1508 is space debris in LEO originally from a launch on Fri, 13 Aug 1965 UTC launched from the Air Force Western Test Range (AFWTR). Debris objects in space refer to the collection of defunct objects orbiting the Earth. Examples of debris include non-operational satellites, rocket bodies, and fragments generated from explosions, collisions, or faulty payload assembly.

Loading next visibility...
Identifier
1508, 1965-065B
Orbit
LEO
Country
Flag of USUS
Related business
Manufacturer
Aerojet
Mission
Spacecraft
Bus & Motor
ABLESTAR, Unknown motor
Mass
~600 kg wet, 600 kg dry
Launch date (UTC)
1965-08-13 (61 years ago)
Launch vehicle
Unknown
Launch site
Air Force Western Test Range (AFWTR)
Object type
Payload
Rocket body
Debris
Shape & HBR
Unknown
Radar Cross Section
Large (>1 m²)

Expand to show TLE details & history
Last TLE update: 9 hours ago

TLE from 9 hours ago
0 THOR ABLESTAR R/B
1 01508U 65065B   26168.88059265  .00000026  00000-0  35273-4 0  9994
2 01508  90.1323 307.7063 0040983 332.5449 138.4729 13.36095587965500
Epoch: 2026-06-17T21:08Z
TLE epoch observation values (Epoch: 2026-06-17T21:08:03.204Z)
Latitude
68.74422°
Longitude
-95.10059°
Altitude
1,158.917 km
Speed
7.269 km/s
True Right ascension
08h 32m 10s
True Declination
68° 38' 02"
Sunlit
Object was in daylight at epoch
Visualization orbit readout
Latitude
Unknown
Longitude
Unknown
Altitude
Unknown
Speed
Unknown
Apparent Right ascension
Unknown
Apparent Declination
Unknown
Sunlit
N/A
Visualization observer readout
Local Sidereal Time
17:00:55
Azimuth
Unknown
Elevation
Unknown
Doppler factor
Unknown
Orbital elements
Apogee altitude
1,151.662 km
Perigee altitude
1,090.196 km
Semi-major axis
7,499.066 km
Eccentricity
0.0041
Inclination
90.1323°
RAAN
307.7063°
Arg. of periapsis
332.5449°
True anomaly
138.78306°
Mean anomaly
138.4729°
Eccentric anomaly
138.6281°
Mean motion
3.3422 °/min
Orbital period
107.71 mins
BSTAR
0.000035273
Loading maneuver chart data...
Computing Atmospheric mass density...
Loading historical data...
Loading historical data...
Loading historical data...
Loading historical data...
Loading historical data...
Loading historical data...
Loading historical data...

Documentation

Showing up to 5 results
|